Regional Weather Roundup
Issued by NWS

Home | Current Version | Previous Version | Graphics & Text | Print | Product List | Glossary Off
Versions: 1 2 3 4 5 6 7 8 9 10 11 12 13 14 15 16 17 18 19 20 21 22 23 24 25 26 27 28 29 30 31 32 33 34 35 36 37 38 39 40 41 42 43 44 45 46 47 48 49 50

000
ASUS43 KMPX 251801
RWRMN
WEATHER ROUNDUP FOR MINNESOTA
NATIONAL WEATHER SERVICE TWIN CITIES/CHANHASSEN MN
1200 PM CST SUN FEB 25 2018


NOTE: "FAIR" INDICATES FEW OR NO CLOUDS BELOW 12,000 FEET WITH NO
SIGNIFICANT WEATHER AND/OR OBSTRUCTIONS TO VISIBILITY. N/A MEANS
CURRENT SKY AND/OR WEATHER CONDITIONS ARE NOT AVAILABLE.

MNZ060>063-068>070-251900-
   Twin Cities Metro

CITY           SKY/WX    TMP DP  RH WIND       PRES   REMARKS
TWIN CITIES    FAIR      23  14  68 W17G23    29.76R WCI   9
6HR MIN TEMP:  15; 6HR MAX TEMP:  23;

ST PAUL        PTSUNNY   23  13  65 W13G23    29.77R WCI  11
CRYSTAL        FAIR      23  12  62 W16G26    29.74R WCI  10
BLAINE         MOSUNNY   25  14  63 W14G22    29.73R WCI  13
LAKEVILLE      FLURRIES  21  16  79 W17G23    29.76S WCI   7
EDEN PRAIRIE   FAIR      23  13  65 W10       29.75R WCI  12
6HR MIN TEMP:  13; 6HR MAX TEMP:  23;

SOUTH ST PAUL  FAIR      24  14  65 W13G22    29.75S WCI  12
LAKE ELMO      FAIR      23  14  68 SW15G21   29.74R WCI  10
$$
MNZ001>005-007-008-013>017-022>024-027-028-251900-
   Northwest Minnesota

CITY           SKY/WX    TMP DP  RH WIND       PRES   REMARKS
BEMIDJI        FAIR      20  14  75 W17       29.55R WCI   6
HALLOCK        CLOUDY    21  16  79 W7        29.56R WCI  13
ROSEAU         LGT SNOW  21  16  79 SW13      29.52R WCI   9
WARROAD        SNOW      21  18  86 W12       29.50R VSB 1/2 WCI   9
THIEF RVR FALL LGT SNOW  18  14  84 W12       29.58R FOG     WCI   5
CROOKSTON      PTSUNNY   23  19  86 W9        29.61R WCI  13
FOSSTON        LGT SNOW  21  12  68 SW10      29.59R WCI  10
DETROIT LAKES  CLOUDY    23  19  86 SW10      29.63R WCI  12
MOORHEAD       PTSUNNY   27  19  74 W13       29.66R WCI  16
PARK RAPIDS    MIX PCPN  22  16  78 W15G25    29.58S WCI   9
MAHNOMEN       CLOUDY    22  17  83 W15       29.61R WCI   9
$$
MNZ006-009>011-018-025>026-251900-
   North Central Minnesota

CITY           SKY/WX    TMP DP  RH WIND       PRES   REMARKS
BAUDETTE       CLOUDY    25  18  74 W13G20    29.46R WCI  14
FLAG ISLAND    PTSUNNY   25  18  74 W13       29.46R WCI  13
INTL FALLS     CLOUDY    25  20  81 W17       29.44R WCI  12
6HR MIN TEMP:  21; 6HR MAX TEMP:  25; 6HR PCP:  0.03;

WASKISH        CLOUDY    21  18  86 W17       29.51R WCI   7
LONGVILLE      CLOUDY    23  16  74 SW13G21   29.58R WCI  11
GRAND RAPIDS   CLOUDY    25  16  68 W14G25    29.54R WCI  13
CRANE LAKE     CLOUDY    25  19  80 W5G17     29.45R WCI  19
ORR            CLOUDY    25  18  74 W13G21    29.43R WCI  13
COOK             N/A     25  19  80 W15G22    29.46R WCI  12
WALKER         LGT SNOW  23  14  68 W13G21    29.56R WCI  12
$$
MNZ012-019>021-037-251900-
   Northeast Minnesota

CITY           SKY/WX    TMP DP  RH WIND       PRES   REMARKS
DULUTH         CLOUDY    24  19  81 W21       29.49R WCI   9
6HR MIN TEMP:  22; 6HR MAX TEMP:  25; 6HR PCP: TRACE;

ELY            CLOUDY    21  19  93 W14G28    29.41R WCI   8
HIBBING        MIX PCPN  24  17  74 W12G21    29.48R WCI  13
EVELETH        PTSUNNY   25  18  74 W17G26    29.47R WCI  11
DULUTH HARBOR  CLOUDY    28  21  74 SW21      29.55R WCI  15
TWO HARBORS    CLOUDY    30  21  69 W20G28    29.46R WCI  18
GRAND MARAIS     N/A     32  21  64 W13G32    29.35R WCI  22
G MARAIS ARPRT CLOUDY    23  14  68 W12G22    29.31R WCI  12
$$
MNZ029>031-032-039>041-046>048-054>057-064-251900-
   West Central Minnesota

CITY           SKY/WX    TMP DP  RH WIND       PRES   REMARKS
FERGUS FALLS   CLOUDY    23  19  86 W17       29.69R WCI   9
WHEATON        MOSUNNY   28  19  69 W14G23    29.73R WCI  17
MORRIS         SUNNY     28  19  69 W16       29.70R WCI  17
ALEXANDRIA     CLOUDY    25  19  78 W23       29.67R WCI  10
ELBOW LAKE     CLOUDY    24  19  82 NW21G26   29.70R WCI   9
WADENA         CLOUDY    21  16  79 W17       29.63R WCI   7
GLENWOOD       FAIR      25  19  80 W22       29.69R WCI  10
APPLETON       SUNNY     28  21  74 W16       29.75R WCI  17
BENSON           N/A     27  19  74 W15       29.75R WCI  15
MADISON        SUNNY     30  21  69 W18G24    29.76R HAZE    WCI  18
WILLMAR        CLOUDY    25  19  80 W18       29.76R WCI  11
$$
MNZ033>034-036-042>043-049>051-058-059-251900-
   Central Minnesota

CITY           SKY/WX    TMP DP  RH WIND       PRES   REMARKS
ST CLOUD       CLOUDY    23  15  71 W14       29.70R WCI  11
6HR MIN TEMP:  13; 6HR MAX TEMP:  23;

SAUK CENTRE    CLOUDY    22  17  81 W14G20    29.68R WCI  10
PAYNESVILLE    CLOUDY    24  19  83 SW16      29.72R WCI  10
AITKIN         PTSUNNY   21  14  73 W14G21    29.59R WCI   8
PINE RIVER     FLURRIES  19  12  73 W9G23     29.64R WCI   9
BRAINERD       PTSUNNY   23  14  68 W17G26    29.63R HAZE    WCI   9
STAPLES        CLOUDY    21  16  79 W14       29.64R WCI   8
LONG PRAIRIE   CLOUDY    23  19  86 SW14G23   29.66S WCI  11
LITTLE FALLS   CLOUDY    23  12  63 W8        29.68R WCI  14
LITCHFIELD     CLOUDY    25  19  80 W9        29.74R WCI  15
BUFFALO        CLOUDY    24  15  69 W10       29.75R WCI  13
MAPLE LAKE     CLOUDY    26  17  69 SW10      29.74R WCI  16
HUTCHINSON     CLOUDY    25  19  78 W20       29.76R WCI  10
$$
MNZ037-044-045-052-053-251900-
   East Central Minnesota

CITY           SKY/WX    TMP DP  RH WIND       PRES   REMARKS
PRINCETON      CLOUDY    25  16  68 SW12      29.70R WCI  14
CAMBRIDGE      LGT SNOW  25  12  58 SW15      29.70R WCI  12
RUSH CITY      CLOUDY    24  14  66 SW15      29.68R WCI  11
MOOSE LAKE     FLURRIES  27  18  69 W14G24    29.57R WCI  15
HINCKLEY       CLOUDY    25  18  74 SW17G24   29.64R WCI  11
CLOQUET        CLOUDY    25  16  68 SW17G29   29.53R WCI  11
MCGREGOR       CLOUDY    27  18  69 SW13G21   29.58R WCI  16
$$
MNZ071>073-080-081-089-090-097-098-251900-
   Southwest Minnesota

CITY           SKY/WX    TMP DP  RH WIND       PRES   REMARKS
MONTEVIDEO     SUNNY     30  19  64 W13       29.76R WCI  20
GRANITE FALLS  SUNNY     27  20  76 SW12      29.80R WCI  16
CANBY          SUNNY     28  20  72 SW18G24   29.78R WCI  15
MARSHALL       SUNNY     29  22  75 W23       29.78S WCI  15
REDWOOD FALLS  MOSUNNY   24  18  77 W14       29.79R WCI  12
OLIVIA         PTSUNNY   28  21  74 W14       29.77R WCI  17
PIPESTONE      MOSUNNY   25  19  80 W17       29.81R WCI  11
WORTHINGTON    CLOUDY    24  18  77 W20       29.83R WCI  10
JACKSON        SUNNY     23  16  74 W20G29    29.83R WCI   8
TRACY          SUNNY     27  22  84 W18G25    29.78S WCI  13
SLAYTON        CLOUDY    24  20  85 W15G23    29.81R WCI  12
$$
MNZ065>067-074>077-082>085-091>093-251900-
   South Central Minnesota

CITY           SKY/WX    TMP DP  RH WIND       PRES   REMARKS
MANKATO        PTSUNNY   24  16  71 SW17      29.80R WCI  11
NEW ULM        SUNNY     23  18  80 W14       29.79S WCI  11
ST JAMES       SUNNY     25  19  80 W20G25    29.82R WCI  11
FAIRMONT       SUNNY     25  17  72 W18       29.85R WCI  11
GLENCOE        CLOUDY    24  17  76 W8        29.76R WCI  15
FARIBAULT      FAIR      25  16  68 SW12      29.80R WCI  14
OWATONNA       FAIR      21  16  79 SW18      29.80R WCI   6
WASECA         FAIR      23  16  74 SW18      29.82R WCI   9
ALBERT LEA     FAIR      25  16  68 W10G16    29.81R WCI  15
$$
MNZ078>079-086>088-094>096-251900-
   Southeast Minnesota

CITY           SKY/WX    TMP DP  RH WIND       PRES   REMARKS
ROCHESTER      FAIR      22  16  78 W16G26    29.77R WCI   8
6HR MIN TEMP:  14; 6HR MAX TEMP:  22;

RED WING       FAIR      25  10  54 W17G23    29.76S WCI  11
STANTON        FAIR      25  15  65 W14G20    29.78R WCI  13
DODGE CENTER   FAIR      21  14  73 W18G24    29.78R WCI   6
WINONA         FAIR      30  19  64 SW13G18   29.78S WCI  20
AUSTIN         FAIR      25  16  68 W10       29.80S WCI  15
PRESTON        FAIR      25  18  76 W10       29.80R WCI  15
$$
ABBREVIATIONS USED IN REMARKS
   TC - TEMPERATURES IN CELSIUS
  WCI - WIND CHILL INDEX
   HX - HEAT INDEX
  VSB - VISIBILITY
$$




USA.gov is the U.S. government's official web portal to all federal, state and local government web resources and services.